Utilitzem cookies pròpies i de tercers per millorar la seva experiència i els nostres serveis,analitzant la navegació en el nostre Lloc Web. Si continua navegant, vostè està acceptant el seu ús. Podeu obtenir més informació a la nostra Política de cookies. OK

En viu: Verticalp Sky Race 7,4 Km ABSOLUTA

Verticalp Sky Race 7,4 Km ABSOLUTA

Resultats provisionals

Potser que algun punt de control no tingui connexió a internet o la tingui deficient.

En aquest cas els passos no es podran visualitzar en directe i aniran apareixent a mesura que siguin transmesos des dels punts de control.

Arribada - Arribada


10
Pendents

165
Han passat

Homes

# - Posició P.C. - Participant Temps Dorsal

1 - 1 - PERE RULLAN ESTARELLES 00:59:41 53

2 - 2 - JORDI BOLET ARAGONÈS 01:00:01 52

3 - 3 - JAN CASTILLO PAREDES 01:01:47 252

4 - 4 - NIL CARDONA COLL 01:04:06 165

5 - 5 - ALBERT TARTER BRAVO 01:04:09 81

6 - 6 - DAVID SOLER SUCARRATS 01:05:35 134

7 - 7 - JORDI BES GINESTA 01:05:38 131

8 - 8 - JUAN MONTOYA TELLEZ 01:05:57 23

9 - 9 - POL CODINA MIRALLES 01:09:00 281

10 - 10 - GUILLEM CAPDEVILA VIZCAINO 01:10:35 11

11 - 11 - FABIÀ SUBIRANA DALMAU 01:11:00 13

12 - 12 - DANI FLORES HERNANDEZ 01:12:38 76

13 - 13 - DAVID MALAGON LOPEZ 01:12:47 96

14 - 14 - ENRIC PRUNA GALOCHA 01:13:21 30

15 - 15 - MARCOS MANEN CIVIL 01:13:49 17

16 - 16 - ANTONIO SEGOVIA ALÍAS 01:14:03 112

17 - 17 - JOSEP FERRé HUGUET 01:14:16 56

18 - 18 - HECTOR AGUILAR GUILLEN 01:14:40 39

19 - 19 - MARC MITJANS CARABELLIDO 01:14:57 132

20 - 20 - MARC ARROCHA CAMPDEPADROS 01:15:47 29

21 - 21 - RAUL CáRDENAS 01:17:11 73

22 - 22 - ALBERT PUIG DALMAU 01:18:10 77

23 - 23 - GUILLERMO CARLES-TOLRA 01:18:58 41

24 - 25 - PAU BOSCH DOMINGO 01:19:38 45

25 - 26 - DAVID PATIÑO UBIA 01:19:38 94

26 - 27 - XAVIER MONEDERO SOLANS MONEDERO SOLANS 01:20:12 128

27 - 28 - NESTOR TERRIBAS 01:20:22 4

28 - 29 - ÀLEX ARMADàS SABATé 01:20:54 1

29 - 30 - IVAN FUENTES PUIG 01:21:03 303

30 - 31 - ALBERT TAPIAS PLANAS 01:21:28 136

31 - 32 - FERRAN COMAS FAGES 01:21:41 55

32 - 33 - MÀRIUS BLANCH PLANAS 01:21:55 164

33 - 35 - ORIOL RODRíGUEZ BOSCH 01:22:02 68

34 - 36 - CARLOS MIGUEL MURILLO FUENTES 01:23:07 44

35 - 37 - XAVIER MORA FONTANELLA 01:23:09 59

36 - 38 - XAVIER PATIñO UBIA 01:23:25 169

37 - 39 - MARC FONTANALS ODENA 01:23:34 74

38 - 41 - SERGIO RODRIGUEZ MARQUES 01:24:06 106

39 - 42 - ALEIX MORERA ROCA 01:24:14 14

40 - 44 - ALBERT BARO RIBES 01:24:24 105

41 - 46 - JOSEP MELE 01:24:52 117

42 - 47 - ARNAU GALí 01:24:53 9

43 - 49 - ORIOL SIVILL SIVILL PASCUAL 01:25:36 25

44 - 50 - ANDRES BOU ORTIZ 01:25:38 138

45 - 51 - JORDI LLORD FARRE 01:25:40 282

46 - 52 - JOSEP BARNOLA MONTILLA 01:25:57 124

47 - 53 - JOAN BARNOLA MONTILLA 01:26:13 152

48 - 54 - MARCEL COTS SàNCHEZ 01:26:16 15

49 - 55 - ALEIX BLANCO I CRITG 01:26:22 5

50 - 56 - MICHEL ARNAUD 01:26:30 102

51 - 57 - FèLIX ÒDENA TEIXIDOR 01:26:35 304

52 - 58 - LLUíS FONT MARCET 01:26:42 24

53 - 59 - TONI SANTISTEBAN RONCERO 01:27:27 127

54 - 60 - SANTI RIBOT TERRICABRAS 01:27:58 92

55 - 61 - SALVA TASQUE 01:28:34 78

56 - 62 - MANEL MONTEYS 01:29:12 36

57 - 63 - ANTONIO HIDALGO ROMERO 01:29:15 158

58 - 64 - ORIOL NAFRIA ROVIRA 01:29:23 123

59 - 65 - JAUME CODINA MEJON 01:29:53 155

60 - 66 - EDUARD NAFRIA MITJANS 01:30:21 122

61 - 67 - CARLES PORTé 01:30:40 135

62 - 68 - SERGIO CASTELLANO ROMERO 01:30:53 38

63 - 70 - JOAQUIM ANGLES TALLADA 01:32:32 21

64 - 71 - FRANCESC COLOM MALLARACH 01:32:44 95

65 - 72 - MARC BADIA 01:32:56 116

66 - 73 - XAVIER CASANOVAS GARCIA 01:33:09 121

67 - 75 - ALEIX MARTIN RODRIGUEZ 01:33:38 149

68 - 76 - SEBASTIA PALACIN URBINA 01:34:26 147

69 - 77 - MARC ALABERN MACHUCA 01:34:37 139

70 - 80 - XAVIER OLIVERA MILLAN 01:35:11 72

71 - 81 - JOAN BLANCH BATET 01:35:45 302

72 - 82 - LLUIS TORTAJADA ROJAS 01:35:54 143

73 - 83 - JORDI POL AYMERICH 01:36:17 51

74 - 84 - GERARD CASANOVAS NICOLAU 01:36:22 251

75 - 85 - CARLOS PAíS COLLADO 01:36:33 63

76 - 87 - DANIEL DAVí RECASENS 01:37:55 80

77 - 88 - GAY DIDIER RAYMOND 01:38:01 7

78 - 89 - ANTONI GRANERO ROSSINYOL 01:38:05 130

79 - 90 - SERGI REAL ROSA 01:38:35 150

80 - 91 - SERGI MINGORANCE ALONSO 01:39:13 107

81 - 93 - PAU SERRABOU CLEMENTE-ALLOZA 01:39:35 129

82 - 96 - OSCAR REOLID BAUSELLS 01:40:15 37

83 - 97 - JOSEP QUEVEDO PADRó 01:40:35 62

84 - 98 - ALFREDO INGELMO 01:40:39 100

85 - 99 - GUSTAVO BRUN ALTAMIRANO 01:41:15 57

86 - 100 - JORGE MATEO RODRIGUEZ 01:41:16 6

87 - 101 - JORDI ESCOFET OLIVER 01:41:51 133

88 - 102 - JOAN CASTILLO SOLANS 01:42:04 153

89 - 103 - JOAN HUESCA VANCELL 01:42:26 26

90 - 104 - DAVID BALAGUER LOPEZ 01:42:36 54

91 - 105 - TONI SALAS PALLICER 01:42:50 104

92 - 106 - EDUARDO CARLES-TOLRA 01:42:59 42

93 - 107 - RAMON SALESA GRESA 01:43:43 87

94 - 108 - PERE ROVIRO PARAREDA 01:44:02 167

95 - 109 - JOAN PORCAR BUSQUETS 01:44:06 79

96 - 110 - LLUíS BALOT TOLDRà 01:44:28 18

97 - 111 - JORDI BUSQUETS GUBIANAS 01:44:54 46

98 - 112 - ENRIC ARQUéS BASSEGODA 01:45:11 140

99 - 113 - DOMÈNEC MELE CASAS 01:46:42 162

100 - 114 - CRISTIAN CAPOTE JIMENEZ 01:47:01 47

101 - 115 - PERE PUIGDOMèNECH THIBAUT 01:47:30 66

102 - 116 - XAVIER VICENTE ALEMANY 01:47:33 93

103 - 118 - DANIEL ARQUES BASSEGODA 01:49:02 137

104 - 119 - IÑAKI MALED GARCIA 01:49:06 101

105 - 120 - CARLES AMAT MATEU 01:49:07 99

106 - 121 - SEBASTIà MOREY BAUZA 01:49:26 69

107 - 123 - XAVIER GONZALEZ MARTI 01:49:34 16

108 - 124 - XAVIER BISBE 01:50:19 114

109 - 126 - ANTONI ROSSELLó ROFES 01:51:23 64

110 - 127 - JESUS DOMINGUEZ MENDEZ 01:52:31 2

111 - 128 - LLUíS ALVAREZ GRACIA 01:53:46 65

112 - 129 - CHRISTIAN CARRERAS VIDAL 01:54:00 35

113 - 130 - JORDI PERPINYA PERPINYA 01:54:07 141

114 - 131 - MARTí RODRíGUEZ 01:54:11 113

115 - 132 - XAVI MARTI 01:54:51 148

116 - 133 - ALEX MIERA MAS 01:55:19 144

117 - 134 - FRANCESC GOSALVES LOPEZ 01:55:35 98

118 - 135 - ANTONIO ORTIZ LUQUE 01:57:14 58

119 - 136 - TONO VILADOMIU PADRó 01:59:40 86

120 - 138 - BENJAMIN GARCIA MORALES 02:02:41 48

121 - 139 - SERGI GUILLOT 02:02:46 71

122 - 141 - SERGIO SERRA RIPOL 02:02:50 88

123 - 142 - JAUME TORRENTS CHERTÓ 02:04:09 161

124 - 143 - JORDI GALTER 02:04:18 111

125 - 145 - ANTONIO CAMINITI IDONE 02:06:18 125

126 - 153 - JOAN BAYLINA MELé 02:17:13 146

127 - 154 - EDUARDO VILADONIU PADRO 02:17:24 160

128 - 155 - VICENTE MARTINEZ GONZALEZ 02:19:07 49

129 - 156 - BERNAT PLANS BERENGUER 02:20:47 108

130 - 157 - MIQUEL ANGEL GARCIA ESTEVE 02:20:49 109

131 - 159 - LLUIS CASAS SANABRA 02:23:35 90

132 - 162 - ANGEL APARICIO 02:29:48 70

133 - 163 - PEDRO REBOLLO DíAZ 02:30:02 67

134 - 164 - JORDI PUJOL XICOY 02:36:59 166

135 - 165 - JAVIER PEREZ-ULLIVARRI PINEDA 02:41:04 82

Dones

# - Posició P.C. - Participant Temps Dorsal

1 - 24 - ALICIA HUDELSON 01:19:12 8

2 - 34 - CLAUDIA GALICIA COTRINA 01:21:59 163

3 - 40 - MARTA CARRASCO MARGINET 01:23:48 61

4 - 43 - AITANA DOMENECH MARTINEZ 01:24:15 10

5 - 45 - MARION ROUVIER BACO 01:24:51 103

6 - 48 - ANNA FERNANDEZ BONEL 01:25:12 110

7 - 69 - MIREIA CASELLAS CUNILL 01:31:44 12

8 - 74 - BERTA BURGUETE OLIETE 01:33:35 157

9 - 78 - TOMA VALEIKAITE VALEIKAITE 01:34:38 28

10 - 79 - TERESA FORN MUNNE 01:35:03 145

11 - 86 - MIRIAM MORENO CASTILLO 01:37:22 40

12 - 92 - MIREIA MONMANY CODINA 01:39:24 85

13 - 94 - EVA ROCA GARCíA 01:39:56 75

14 - 95 - BERTA MORENO LLAGOSTERA 01:39:56 84

15 - 117 - ROCIO GERMAN RUIZ 01:47:41 50

16 - 122 - ISABELLE THOMAS SERRA 01:49:32 33

17 - 125 - JORDINA MARTíNEZ TOSAS 01:50:59 3

18 - 137 - YOLANDA MEDINA 01:59:43 151

19 - 140 - ANITTA KOISTINEN KOISTINEN 02:02:46 118

20 - 144 - MàBEL VILA ESCRICH 02:04:25 156

21 - 146 - MARIA GARCIA DURAN 02:07:42 120

22 - 147 - MARIA ROVIRA FERRER 02:09:46 31

23 - 148 - BETI VIVES 02:10:17 126

24 - 149 - MARIA CALDéS BOU 02:10:20 22

25 - 150 - LAURA MORELL 02:10:34 115

26 - 151 - MONIQUE RAMOS 02:12:06 83

27 - 152 - IRENE VIVES ARMENGOL 02:15:53 159

28 - 158 - MARTA LOPEZ 02:21:13 97

29 - 160 - AFRICA LOPEZ RODRIGUEZ 02:23:37 91

30 - 161 - MA FRANCESCA TORTOSA TUA 02:28:34 89

Publicitat